Time,TemperatureF,DewpointF,PressureIn,WindDirection,WindDirectionDegrees,WindSpeedMPH,WindSpeedGustMPH,Humidity,HourlyPrecipIn,Conditions,Clouds,dailyrainin,SoftwareType,DateUTC
2013-10-04 00:23:00,41.0,41.0,30.34,NNE,18,12.0,16.0,100,0.00,,,0.00,,2013-10-04 07:23:00,
2013-10-04 00:56:00,41.0,41.0,30.34,North,11,12.0,17.0,100,0.00,,,0.00,,2013-10-04 07:56:00,
2013-10-04 01:23:00,42.0,42.0,30.34,North,9,13.0,14.0,100,0.00,,,0.00,,2013-10-04 08:23:00,
2013-10-04 01:56:00,42.0,41.0,30.34,North,2,9.0,15.0,98,0.00,,,0.00,,2013-10-04 08:56:00,
2013-10-04 02:23:00,42.0,41.0,30.35,North,355,9.0,13.0,97,0.00,,,0.00,,2013-10-04 09:23:00,
2013-10-04 02:58:00,42.0,40.0,30.35,North,8,6.0,9.0,94,0.00,,,0.00,,2013-10-04 09:58:00,
2013-10-04 03:26:00,43.0,39.0,30.34,NNE,15,5.0,7.0,86,0.00,,,0.00,,2013-10-04 10:26:00,
2013-10-04 03:58:00,43.0,38.0,30.34,North,355,1.0,5.0,81,0.00,,,0.00,,2013-10-04 10:58:00,
2013-10-04 04:25:00,44.0,37.0,30.34,North,0,0.0,0.0,77,0.00,,,0.00,,2013-10-04 11:25:00,
2013-10-04 04:58:00,46.0,35.0,30.33,North,0,0.0,0.0,64,0.00,,,0.00,,2013-10-04 11:58:00,
2013-10-04 05:25:00,44.0,34.0,30.33,ESE,106,8.0,10.0,67,0.00,,,0.00,,2013-10-04 12:25:00,
2013-10-04 05:58:00,45.0,34.0,30.34,East,98,6.0,7.0,64,0.00,,,0.00,,2013-10-04 12:58:00,
2013-10-04 06:25:00,44.0,33.0,30.34,SE,124,8.0,8.0,66,0.00,,,0.00,,2013-10-04 13:25:00,
2013-10-04 06:57:00,46.0,33.0,30.35,ESE,110,9.0,9.0,60,0.00,,,0.00,,2013-10-04 13:57:00,
2013-10-04 07:25:00,42.0,36.0,30.34,ESE,123,11.0,12.0,78,0.00,,,0.00,,2013-10-04 14:25:00,
2013-10-04 07:58:00,43.0,37.0,30.34,East,95,13.0,15.0,79,0.00,,,0.00,,2013-10-04 14:58:00,
2013-10-04 08:25:00,44.0,40.0,30.34,ESE,121,10.0,14.0,86,0.00,,,0.00,,2013-10-04 15:25:00,
2013-10-04 08:58:00,45.0,41.0,30.36,ESE,112,10.0,16.0,87,0.00,,,0.00,,2013-10-04 15:58:00,
2013-10-04 09:26:00,47.0,41.0,30.36,ESE,119,13.0,16.0,81,0.00,,,0.00,,2013-10-04 16:26:00,
2013-10-04 09:58:00,48.0,41.0,30.37,ESE,106,12.0,14.0,78,0.00,,,0.00,,2013-10-04 16:58:00,
2013-10-04 10:25:00,50.0,42.0,30.36,ESE,117,10.0,13.0,73,0.00,,,0.00,,2013-10-04 17:25:00,
2013-10-04 10:59:00,52.0,41.0,30.37,ESE,120,9.0,13.0,66,0.00,,,0.00,,2013-10-04 17:59:00,
2013-10-04 11:25:00,53.0,42.0,30.37,East,89,8.0,12.0,66,0.00,,,0.00,,2013-10-04 18:25:00,
2013-10-04 11:56:00,55.0,44.0,30.37,ESE,106,8.0,13.0,67,0.00,,,0.00,,2013-10-04 18:56:00,
2013-10-04 12:22:00,55.0,45.0,30.37,SE,141,4.0,16.0,68,0.00,,,0.00,,2013-10-04 19:22:00,
2013-10-04 12:52:00,56.0,46.0,30.37,SE,141,7.0,10.0,68,0.00,,,0.00,,2013-10-04 19:52:00,
2013-10-04 13:21:00,56.0,45.0,30.37,North,0,0.0,10.0,67,0.00,,,0.00,,2013-10-04 20:21:00,
2013-10-04 13:52:00,55.0,47.0,30.37,North,0,0.0,0.0,75,0.00,,,0.00,,2013-10-04 20:52:00,
2013-10-04 14:22:00,56.0,44.0,30.36,SE,137,0.0,9.0,63,0.00,,,0.00,,2013-10-04 21:22:00,
2013-10-04 14:54:00,56.0,45.0,30.35,SE,144,1.0,9.0,66,0.00,,,0.00,,2013-10-04 21:54:00,
2013-10-04 15:23:00,57.0,41.0,30.35,North,0,0.0,0.0,56,0.00,,,0.00,,2013-10-04 22:23:00,
2013-10-04 15:52:00,56.0,43.0,30.35,North,0,0.0,4.0,61,0.00,,,0.00,,2013-10-04 22:52:00,
2013-10-04 16:22:00,54.0,41.0,30.35,North,0,0.0,0.0,61,0.00,,,0.00,,2013-10-04 23:22:00,
2013-10-04 16:53:00,54.0,39.0,30.35,North,0,0.0,0.0,56,0.00,,,0.00,,2013-10-04 23:53:00,
2013-10-04 17:22:00,56.0,40.0,30.34,North,0,0.0,0.0,55,0.00,,,0.00,,2013-10-05 00:22:00,
2013-10-04 17:42:00,56.0,40.0,30.34,ESE,119,7.0,9.0,55,0.00,,,0.00,,2013-10-05 00:42:00,
2013-10-04 17:52:00,55.0,41.0,30.33,SE,130,5.0,9.0,60,0.00,,,0.00,,2013-10-05 00:52:00,
2013-10-04 18:21:00,54.0,42.0,30.33,East,89,6.0,8.0,64,0.00,,,0.00,,2013-10-05 01:21:00,
2013-10-04 18:52:00,52.0,41.0,30.32,East,79,8.0,11.0,66,0.00,,,0.00,,2013-10-05 01:52:00,
2013-10-04 19:21:00,52.0,37.0,30.32,ENE,71,8.0,11.0,56,0.00,,,0.00,,2013-10-05 02:21:00,
2013-10-04 19:52:00,53.0,33.0,30.32,ENE,77,9.0,11.0,47,0.00,,,0.00,,2013-10-05 02:52:00,
2013-10-04 20:22:00,53.0,36.0,30.32,NE,46,7.0,9.0,52,0.00,,,0.00,,2013-10-05 03:22:00,
2013-10-04 20:55:00,53.0,28.0,30.32,NE,42,6.0,8.0,38,0.00,,,0.00,,2013-10-05 03:55:00,
2013-10-04 21:24:00,52.0,27.0,30.32,ENE,72,8.0,10.0,37,0.00,,,0.00,,2013-10-05 04:24:00,
2013-10-04 21:53:00,52.0,33.0,30.32,East,85,13.0,14.0,48,0.00,,,0.00,,2013-10-05 04:53:00,
2013-10-04 22:22:00,51.0,37.0,30.32,ESE,103,12.0,16.0,59,0.00,,,0.00,,2013-10-05 05:22:00,
2013-10-04 22:52:00,51.0,35.0,30.32,SE,142,9.0,10.0,54,0.00,,,0.00,,2013-10-05 05:52:00,
2013-10-04 23:22:00,51.0,36.0,30.32,SE,127,9.0,11.0,56,0.00,,,0.00,,2013-10-05 06:22:00,
2013-10-04 23:52:00,51.0,36.0,30.31,ESE,112,11.0,13.0,56,0.00,,,0.00,,2013-10-05 06:52:00,